Tracking 19146 objects as of 23-Apr-2018
HD Live streaming from Space Station
objects crossing your sky now

METEOSAT 5 AKM

Track METEOSAT 5 AKM now!


NORAD ID: 21904
Int'l Code: 1991-015E
Perigee: 35,176.9 km
Apogee: 36,472.5 km
Inclination: 14.4 °
Period: 1,437.7 minutes
Semi major axis: 42195 km
RCS: 0.9471 m2 (medium)
Launch date: March 2, 1991
Source: European Space Agency (ESA)
Launch site: FRENCH GUIANA (FRGUI)

Note: This is a ROCKET BODY
aabbcc
Your satellite tracking list
Your tracking list is empty




NASA's NSSDC Master Catalog

Two Line Element Set (TLE):
1 21904U 91015E   18112.44505094 -.00000014 +00000-0 +00000-0 0  9992
2 21904 014.4367 002.1187 0153524 157.2869 038.5526 01.00161320086546
Source of the keplerian elements: AFSPC